Terug naar catalogus

COSMOS 2251 DEB

ActiefLEO
NORAD 33823·DEBRIS·🇷🇺 Russia

Gelanceerd Jun 16, 1993 vanaf Plesetsk Cosmodrome

Loading…

Volgende Passages (komende 24 uur)

TLE

VersSource: Space-Track

Epoch: Sep 14, 2026, 08:57 UTC

1 33823U 93036BQ  26257.37347172  .00000715  00000-0  42148-3 0  9991
2 33823  73.8113  26.0026 0206878 103.1811 290.0029 13.99503959894653

Volg COSMOS 2251 DEB in realtime met AllMySat

Download on the App Store